Wind_Speed
8 8 9 9 9 10 11 13 14 14 14 13 13 12 12 12 11 10 10 11 12 12 12 12 10 8 7 9 11 12 11 10 11 11 8 7 8 8 8 8 8 8 8 8 7 8 8 8 7 7 7 8 9 10 9 9 9 9 9 9 10 10 11 11 10 10 10 10 10 10 10 9 9 8 8 8 7 7 7 6 6 4 3 2 2
9 10 11 11 10 11 12 14 14 15 15 15 14 13 13 13 12 11 11 11 12 13 13 13 12 9 7 8 10 12 12 11 12 12 11 9 9 10 10 9 9 9 10 9 8 9 9 9 9 9 8 9 10 11 11 11 11 11 11 11 11 11 11 11 11 10 10 11 10 10 10 10 9 9 9 8 8 7 7 6 6 4 3 2 2
11 12 13 13 13 12 12 13 14 15 16 16 15 14 14 14 14 13 13 12 12 13 13 13 12 11 9 8 10 11 12 12 12 13 13 12 11 11 11 11 10 11 11 11 10 10 10 10 10 9 9 10 10 11 12 12 12 13 13 12 12 12 13 12 12 11 11 11 11 11 10 10 10 10 9 9 8 7 7 6 5 4 3 2 2
12 14 15 15 15 15 14 14 14 14 14 15 16 15 15 15 15 15 14 14 13 14 14 14 14 14 13 11 11 12 13 14 13 13 13 13 13 12 13 13 12 11 12 12 11 11 11 10 10 10 10 11 11 12 12 13 14 14 14 14 14 14 14 14 13 12 12 12 11 11 11 11 11 11 10 10 9 8 7 6 5 4 3 2 1
12 15 15 15 15 16 16 15 14 13 14 16 16 16 16 16 15 16 16 15 15 15 15 16 16 17 17 16 14 14 15 15 15 15 14 14 14 14 13 14 14 12 12 12 12 12 12 12 11 11 11 11 12 12 13 14 14 15 15 15 15 15 14 14 14 13 13 13 12 12 11 11 11 11 11 11 10 9 8 7 5 4 3 2 2
13 15 15 15 15 15 15 14 14 16 17 17 17 16 16 16 16 17 17 17 16 16 16 16 17 17 18 18 17 17 17 17 17 17 17 16 16 16 15 15 15 13 13 13 12 12 12 12 12 12 12 12 12 13 13 14 15 15 16 16 16 16 15 15 15 14 14 13 13 13 12 12 12 12 12 12 11 10 9 8 6 5 4 4 3
15 16 16 16 15 15 15 15 17 20 21 19 17 16 16 15 16 18 18 17 17 18 18 18 17 17 18 19 19 19 19 19 19 18 18 18 18 18 17 15 14 14 15 15 14 12 12 12 13 14 14 14 14 14 14 15 15 16 17 17 17 17 16 16 15 15 14 14 14 14 13 12 12 12 12 12 12 11 10 9 8 7 6 5 5
17 17 17 17 17 19 21 22 23 22 21 18 17 17 17 16 16 17 17 16 17 18 19 18 18 18 18 19 19 19 20 20 20 18 18 19 18 19 18 16 15 15 15 15 15 14 14 14 14 14 15 16 16 16 15 15 16 16 17 18 18 18 18 17 17 16 16 15 15 14 14 13 13 13 13 13 13 12 11 10 9 8 8 7 6
17 18 18 19 21 24 25 24 23 21 20 18 18 18 17 17 16 17 16 17 17 17 19 19 18 18 18 18 18 19 19 19 20 20 19 19 19 19 19 18 17 16 16 16 16 16 16 16 16 16 16 17 18 18 17 17 16 17 17 18 19 19 19 19 18 18 17 16 16 16 15 15 14 14 14 14 14 13 13 12 11 10 9 9 8
19 20 21 22 24 24 24 22 21 19 19 18 18 19 18 17 17 18 19 19 18 18 18 19 18 17 16 16 17 19 19 19 21 21 20 19 19 20 20 20 20 19 18 18 18 19 19 19 19 19 17 17 18 19 20 19 18 18 18 19 19 20 20 20 20 19 19 18 18 17 16 16 15 15 15 15 14 14 14 13 13 12 11 10 9
19 20 21 22 22 22 21 20 19 18 17 17 17 17 18 17 17 19 19 20 20 20 20 18 17 16 16 16 17 18 19 19 20 21 19 18 18 20 21 22 21 21 20 20 20 21 21 21 21 21 19 18 18 19 21 21 20 19 19 20 20 20 20 21 21 21 20 20 19 18 18 17 17 16 16 16 15 15 15 14 14 13 13 12 11
18 19 20 20 20 20 19 19 18 17 16 16 15 16 16 17 17 17 18 19 20 20 20 19 17 17 17 17 17 17 17 18 19 19 19 17 17 19 21 22 22 22 21 21 21 22 22 22 22 22 22 20 19 20 21 22 22 22 21 21 21 21 21 21 22 22 22 21 21 20 19 19 18 17 17 17 16 16 16 15 15 14 14 13 13
19 20 21 20 19 18 18 18 17 17 16 15 15 15 16 16 17 17 17 17 18 19 20 19 19 18 18 18 17 18 17 17 18 18 19 18 18 19 20 22 23 23 23 23 23 23 24 24 24 24 23 22 21 20 22 23 23 23 23 22 22 22 22 22 23 23 23 23 22 22 21 20 20 19 18 18 17 17 17 16 16 15 15 14 14
19 20 20 20 19 18 17 17 16 15 15 14 14 14 15 16 15 15 15 14 15 17 18 19 19 19 19 17 16 17 17 17 17 17 18 18 19 19 19 21 22 23 24 25 25 24 25 26 26 26 25 24 23 22 22 24 25 25 24 24 23 22 22 23 23 24 24 24 24 23 23 22 21 21 20 19 18 18 18 17 17 16 16 16 15
18 18 18 18 17 16 15 15 14 13 13 13 13 13 13 14 13 12 12 12 13 15 17 18 18 19 19 17 15 15 16 17 17 17 17 18 19 19 20 21 22 23 24 24 25 25 25 26 28 28 27 26 26 25 26 27 26 25 25 26 26 25 24 23 24 24 25 25 25 24 24 23 23 22 22 21 20 19 19 18 18 17 17 16 16
16 16 16 15 14 14 13 13 12 12 13 13 13 13 13 12 12 11 11 12 13 15 17 18 18 20 20 19 18 16 16 16 16 16 17 17 18 19 21 22 22 23 24 24 24 25 25 26 27 28 28 28 28 28 29 29 28 26 26 27 27 27 26 25 24 25 25 26 26 25 25 25 24 24 23 23 22 21 20 20 19 19 18 18 17
17 17 16 15 14 13 13 13 13 13 13 13 13 13 13 12 12 12 13 13 13 14 16 17 18 19 20 20 20 19 18 18 17 16 17 17 17 18 20 22 22 23 24 25 25 25 25 26 27 27 29 29 30 30 31 31 30 27 26 27 28 28 28 27 26 26 25 26 27 27 27 26 26 26 25 25 24 23 22 21 21 20 20 19 19
17 17 16 15 14 14 14 14 14 13 13 13 13 13 13 12 12 13 14 14 13 14 15 17 17 18 18 19 20 21 21 20 20 18 16 16 17 18 19 21 22 22 22 24 25 25 25 26 26 27 28 29 30 31 32 33 32 29 27 27 28 29 29 29 28 28 27 27 27 27 28 28 27 27 27 26 26 25 24 23 22 22 21 21 21
16 16 15 15 14 14 14 13 13 13 12 12 13 13 13 13 12 12 13 14 14 14 15 16 17 17 17 18 20 21 22 22 23 22 19 17 16 18 19 20 21 22 22 23 24 25 26 26 27 27 28 28 29 30 31 31 31 31 29 28 28 29 30 30 30 29 29 29 28 28 28 29 29 29 29 28 27 27 26 25 24 23 23 22 22
15 14 14 14 14 13 12 12 12 12 12 12 13 13 13 14 13 12 12 13 13 14 15 15 15 16 16 17 18 20 21 21 22 23 24 21 17 16 18 19 20 21 23 23 24 25 26 27 27 28 28 28 29 30 29 29 30 31 30 29 29 29 30 30 30 30 30 31 30 30 29 30 30 31 30 30 29 29 28 27 26 25 24 24 23
15 15 14 14 14 14 13 13 13 13 13 13 13 13 14 14 13 13 12 13 14 15 15 15 15 15 16 17 18 19 19 20 21 22 24 25 21 18 17 18 18 20 22 23 24 25 26 27 27 27 28 28 29 30 31 31 31 31 31 31 31 31 30 30 30 30 30 31 32 32 31 31 31 32 32 31 31 30 30 29 28 27 26 25 25
18 17 16 15 15 15 15 15 14 15 14 14 14 14 13 13 13 13 13 13 14 15 15 16 16 16 16 16 18 19 19 19 20 22 23 24 24 21 19 19 18 18 20 22 23 24 25 27 27 27 28 28 29 30 31 31 32 32 33 33 33 32 32 31 31 31 31 31 33 33 33 32 32 32 33 33 32 32 31 30 29 28 27 26 26
20 19 17 16 16 15 15 15 16 16 16 15 15 14 14 14 14 13 13 13 14 14 14 15 16 16 17 17 18 18 18 18 19 21 22 23 24 23 21 20 19 18 19 19 20 22 24 26 26 26 27 29 29 30 30 31 31 32 33 35 35 34 34 34 34 33 33 32 33 34 35 34 33 33 33 34 34 34 33 32 31 30 29 28 27
21 19 18 17 16 15 15 16 17 17 17 16 15 15 15 15 14 14 14 14 14 14 15 16 16 17 17 18 18 18 18 19 20 21 21 22 23 23 22 20 19 18 18 18 17 18 20 24 26 26 26 28 30 31 31 31 32 32 32 35 36 36 35 36 36 35 34 34 34 35 36 36 34 34 34 34 35 35 34 34 33 31 30 29 28
22 20 18 17 16 16 16 16 17 17 17 17 16 15 15 15 15 15 15 15 15 15 15 16 16 17 17 17 18 18 18 18 19 19 20 21 22 23 23 22 20 18 18 17 17 16 16 19 23 25 26 27 29 31 32 33 33 34 34 35 36 37 37 37 37 36 35 35 35 36 38 37 36 35 35 35 36 36 36 35 34 33 32 31 30
22 20 19 18 17 16 16 16 16 16 16 16 16 15 15 15 15 15 16 16 17 17 17 16 16 16 17 17 17 17 18 17 17 18 19 21 22 23 24 23 22 19 17 16 17 16 16 17 20 23 26 28 30 32 33 34 35 36 37 37 37 37 38 38 38 37 36 35 35 37 38 38 37 37 37 36 36 36 36 36 36 35 34 33 32
22 20 19 18 17 16 16 16 16 16 16 16 16 15 15 15 15 15 16 17 18 18 18 18 17 17 17 18 18 18 18 18 18 19 20 21 22 24 25 26 25 22 19 16 17 18 18 17 18 21 24 27 30 33 34 35 36 37 39 40 40 39 39 39 39 39 39 37 36 37 38 38 37 38 38 38 37 37 37 37 37 37 36 35 34
22 20 19 18 17 16 16 15 15 16 16 15 15 15 15 15 15 15 15 16 17 17 18 18 18 18 18 18 19 19 19 19 20 20 20 21 23 24 25 26 27 27 24 20 19 20 21 20 18 19 22 25 29 33 36 37 36 37 39 40 41 41 40 40 41 42 42 40 39 39 39 38 37 38 39 39 38 38 37 37 37 37 37 36 36
22 20 19 18 17 16 15 15 15 15 15 15 15 15 15 15 15 14 15 16 17 17 18 18 19 19 18 18 19 20 20 21 21 21 22 22 23 24 25 26 27 29 29 27 24 23 24 24 23 22 23 24 28 32 36 38 38 38 39 40 41 41 41 41 42 43 44 43 41 41 41 39 38 39 40 41 40 39 38 38 38 39 38 38 37
22 19 18 17 16 15 14 14 15 14 14 14 15 14 14 15 15 14 14 15 17 18 19 19 20 20 19 19 19 19 20 20 21 22 23 22 22 23 24 25 27 28 30 31 30 27 27 27 28 29 28 26 27 31 34 38 39 39 40 40 40 41 41 41 42 43 45 45 43 42 42 40 39 40 41 42 42 41 39 38 39 39 40 39 38
22 21 19 16 15 15 14 14 14 14 14 14 14 14 14 14 14 14 14 15 16 18 19 19 20 20 20 20 21 21 21 20 21 22 22 23 23 23 24 25 26 27 29 32 33 32 30 31 31 32 33 31 28 29 33 36 39 40 41 41 40 40 41 42 42 43 44 45 44 44 43 41 39 40 42 44 43 42 40 39 38 38 40 40 40
23 21 18 15 14 14 14 14 14 14 14 14 14 14 13 13 13 14 15 16 17 18 19 19 19 20 20 21 21 22 21 21 21 22 23 24 24 25 25 25 26 27 29 31 34 35 33 34 34 34 35 35 32 30 32 36 38 41 43 42 41 40 41 42 43 43 43 45 45 45 44 42 40 40 42 44 43 42 40 39 38 37 38 40 41
22 19 16 14 13 13 13 14 14 14 14 15 16 16 14 14 14 15 16 17 18 18 19 19 20 20 20 21 21 21 21 21 21 22 23 25 26 26 26 25 25 26 28 30 34 37 36 35 35 36 37 37 35 31 31 34 38 41 43 44 43 41 41 41 42 42 42 44 45 45 44 43 42 42 43 44 43 41 40 39 38 37 37 38 40
20 17 15 13 12 12 12 12 13 14 14 16 17 17 16 16 16 16 17 17 18 18 19 20 21 21 21 21 21 21 22 22 22 23 24 25 26 26 25 25 25 25 27 30 32 36 38 37 36 38 38 38 36 33 31 33 37 41 44 45 45 44 42 42 42 42 42 43 45 45 45 45 44 44 44 43 42 41 39 39 38 37 37 37 38
19 17 15 13 11 11 11 11 12 13 14 15 16 17 17 17 17 18 19 18 18 18 19 20 21 22 22 21 21 21 22 22 22 23 24 25 25 25 24 25 26 26 26 29 31 35 39 39 38 39 40 38 37 35 32 31 34 39 43 45 46 46 45 43 43 42 41 41 43 45 46 45 45 46 45 43 41 40 39 39 38 37 37 37 37
18 17 15 12 11 10 10 11 12 13 14 15 17 17 18 19 19 19 20 19 19 19 19 20 21 22 22 21 21 21 21 21 22 22 23 23 23 24 25 26 27 27 27 28 30 33 37 39 39 40 41 39 37 36 34 31 31 36 41 44 46 47 47 46 45 44 42 41 41 43 45 46 47 47 46 44 42 41 40 40 39 38 38 37 37
18 17 15 14 14 13 13 13 13 14 15 17 18 18 19 19 19 19 20 20 20 20 20 21 21 21 21 21 21 21 21 22 22 23 23 23 23 24 25 26 28 28 27 28 29 31 35 38 40 41 40 39 37 36 34 32 31 32 37 42 46 47 48 48 48 46 44 42 42 42 44 46 47 48 47 45 43 42 41 40 40 39 39 38 38
18 16 16 17 17 17 17 17 16 17 17 18 18 18 18 18 19 19 20 20 20 20 20 20 21 21 21 21 21 21 21 22 22 22 23 23 23 24 24 25 27 27 26 27 29 31 34 36 39 41 39 37 38 36 32 31 31 30 33 38 43 47 48 49 49 48 47 45 43 42 43 44 45 46 46 46 44 43 42 41 41 40 40 39 39
16 16 17 18 18 18 19 19 19 19 20 20 19 18 18 18 19 19 19 19 19 19 20 20 20 20 20 21 21 21 21 22 21 21 21 21 22 23 23 24 25 25 26 28 29 31 33 35 37 40 39 38 39 38 32 29 30 30 30 34 40 45 48 49 50 49 48 48 46 44 42 43 43 44 45 45 46 45 44 43 43 42 41 40 40
15 16 17 17 17 18 19 20 21 21 21 21 20 19 18 18 19 19 19 19 18 18 19 19 20 20 20 20 20 21 21 22 22 22 21 21 21 22 22 24 25 26 27 29 30 31 32 34 36 38 39 39 40 39 32 27 29 29 29 30 35 42 47 49 50 49 49 49 48 46 44 44 44 43 43 44 45 46 45 45 45 44 43 42 42
15 16 17 18 18 18 19 20 21 21 21 20 19 19 18 18 19 19 19 19 19 18 18 19 20 20 20 20 20 21 21 22 22 22 22 22 22 22 22 24 25 27 28 29 30 31 32 34 36 37 39 40 40 38 32 25 26 29 29 28 31 37 44 48 49 49 50 50 49 48 47 46 45 44 43 43 43 44 45 45 45 45 44 43 41
17 18 19 19 18 18 18 19 20 21 20 20 19 19 19 19 19 19 20 20 19 19 20 20 20 20 20 20 20 21 22 22 22 23 23 23 23 23 23 24 25 27 28 29 30 31 32 34 35 36 37 40 40 37 33 27 25 28 29 29 29 33 40 46 48 48 49 50 50 49 48 47 46 45 45 45 43 42 43 44 44 43 42 41 39
19 19 19 20 19 19 18 19 20 20 21 21 21 20 20 20 20 20 20 20 20 21 21 21 21 20 20 20 21 22 22 22 22 23 23 23 23 23 23 24 25 26 27 29 29 30 32 34 34 34 36 40 40 37 34 32 29 27 29 30 30 30 35 43 47 47 47 48 49 50 48 47 47 47 46 45 45 43 42 41 41 41 40 39 39
19 18 19 21 21 20 20 20 20 20 21 22 23 22 22 21 21 21 21 21 22 22 22 23 23 23 22 21 22 23 23 22 22 23 22 22 22 23 23 23 24 25 27 28 30 30 32 33 33 32 35 40 41 38 36 36 34 31 29 31 31 31 32 40 46 46 44 44 48 50 49 47 47 48 47 46 46 45 43 41 40 40 40 39 39
19 20 20 22 23 22 22 23 23 22 22 23 24 24 22 21 22 23 22 22 22 22 23 24 25 24 23 23 23 24 23 23 23 23 22 22 22 22 23 22 23 24 26 27 29 30 31 33 33 32 34 38 40 39 39 39 37 35 33 32 33 33 33 36 44 46 43 42 45 49 49 48 47 48 48 46 45 45 44 42 41 41 40 40 40
21 22 23 23 24 24 24 25 26 25 24 24 25 23 21 20 22 23 23 23 23 23 23 24 24 23 23 23 23 23 24 23 23 24 23 23 23 22 22 22 22 23 24 25 27 29 30 32 32 32 33 37 39 40 41 42 40 38 37 36 35 35 34 34 39 45 45 42 44 47 49 48 47 47 48 46 45 45 44 42 41 41 40 40 40
24 25 24 24 24 25 26 26 26 26 25 26 25 23 20 20 22 23 23 23 23 23 23 22 22 22 22 23 23 23 23 24 24 24 24 23 23 22 22 22 22 22 22 23 25 27 28 30 31 33 34 36 39 41 43 45 43 39 39 39 37 36 36 35 37 43 46 44 43 46 48 47 46 46 46 44 44 45 44 42 40 39 38 38 39
26 26 25 26 28 28 26 26 25 25 26 26 24 22 21 21 23 23 23 23 23 23 23 22 21 21 22 23 23 23 23 24 24 25 25 24 23 23 22 23 22 21 21 22 24 26 27 28 30 32 35 37 39 41 44 47 44 38 38 40 39 38 37 36 36 40 45 44 43 45 47 46 44 44 43 42 43 44 44 43 40 38 37 37 37
27 28 28 28 29 28 26 26 26 24 25 26 24 21 22 23 24 24 23 22 23 23 23 22 20 21 22 23 24 24 24 24 25 25 25 25 24 23 23 23 23 22 21 22 24 25 26 28 29 30 33 37 39 42 46 47 43 37 36 40 40 39 38 38 36 36 41 44 42 43 46 45 43 42 42 41 42 43 44 43 41 38 37 37 37
28 30 31 32 33 31 25 23 24 24 25 26 24 22 23 24 25 24 22 22 23 23 23 21 20 20 22 23 24 24 24 25 26 25 26 26 26 25 24 24 24 23 22 23 24 25 26 27 28 29 32 36 39 43 47 46 41 35 34 37 39 39 38 37 35 34 38 42 42 41 44 44 42 41 41 41 41 42 42 41 40 39 38 37 37
27 28 29 31 33 33 27 21 20 22 24 25 24 23 23 24 23 22 22 22 22 23 22 20 19 20 22 24 25 25 25 26 27 27 27 28 27 26 25 25 25 24 24 24 25 26 26 27 27 29 33 36 39 43 46 44 39 35 32 33 37 39 38 37 34 33 37 41 41 41 43 42 40 40 40 40 41 41 41 40 39 39 38 38 37
Wind_Direction
350 343 331 324 319 316 319 322 322 322 320 316 313 313 311 305 302 302 302 299 294 293 295 297 297 294 292 295 293 290 289 287 285 284 282 283 286 287 285 282 278 275 275 275 274 274 271 266 264 267 265 259 256 255 253 249 245 240 233 227 225 224 224 222 220 217 213 210 207 202 198 197 198 201 204 202 195 188 182 175 171 166 161 161 175
333 326 316 311 310 312 316 320 318 316 314 310 308 307 304 299 294 291 293 296 296 295 294 296 298 294 286 289 292 291 289 285 283 283 282 282 284 284 284 285 282 276 275 275 274 275 273 269 263 260 261 261 257 253 252 251 249 246 240 234 229 227 227 226 224 223 220 215 211 208 205 201 199 201 205 205 199 193 186 180 172 164 162 170 191
315 309 302 302 304 307 310 312 313 312 309 306 305 303 301 299 295 291 291 294 296 295 292 292 295 295 288 281 287 291 289 285 283 283 283 283 283 282 283 284 282 278 274 269 267 269 270 271 268 262 259 259 258 255 251 250 250 249 246 241 235 231 230 228 227 226 225 222 217 213 210 208 204 202 203 204 202 197 192 187 176 162 159 173 202
311 302 298 302 306 306 307 308 308 308 307 304 300 298 296 295 295 293 292 293 293 292 289 286 287 290 289 282 278 282 284 283 282 280 279 279 277 277 280 281 280 279 272 263 261 261 262 267 271 269 263 258 256 256 253 250 248 248 248 245 240 236 233 231 229 228 228 227 224 220 215 213 209 205 204 204 202 200 197 194 183 170 162 169 208
307 301 298 301 302 302 305 308 307 306 304 300 296 294 295 294 295 293 291 291 290 288 287 283 282 283 286 283 276 274 277 279 279 277 275 274 273 273 274 276 278 276 269 262 258 257 256 259 266 269 266 260 256 254 253 251 248 247 247 246 243 239 235 233 231 228 228 229 229 226 222 219 214 209 206 204 204 202 201 201 194 184 175 179 208
299 299 299 300 301 301 303 304 303 304 301 296 293 292 295 297 297 293 291 291 289 287 285 283 280 280 283 283 279 275 274 275 275 274 273 270 268 268 266 269 272 270 266 264 262 260 256 253 253 256 259 261 257 252 251 251 249 248 246 245 243 241 237 235 232 230 228 229 231 231 229 226 221 215 210 206 207 207 206 205 203 199 192 191 204
297 296 295 298 301 304 305 300 298 303 302 295 290 288 289 291 290 289 290 290 287 285 285 283 279 278 279 279 279 277 275 275 274 273 273 270 267 266 264 262 262 260 259 259 260 261 256 247 245 246 250 255 257 255 250 248 247 247 247 245 243 241 239 236 234 231 228 228 230 232 233 232 228 223 217 212 210 211 211 210 209 210 208 205 206
296 295 294 297 301 304 304 301 300 303 302 297 289 284 283 282 278 279 283 283 282 283 285 284 280 277 276 275 275 274 275 276 275 274 273 271 268 268 268 264 260 257 256 255 256 257 255 249 245 244 246 248 250 253 253 249 247 246 246 246 244 241 239 238 236 233 230 227 227 230 234 235 234 229 225 221 216 214 215 216 215 215 217 217 215
296 297 299 300 300 300 300 299 301 302 301 299 294 288 284 279 275 274 276 275 275 278 281 283 282 279 277 275 274 273 275 276 276 273 271 271 269 267 268 266 263 261 259 258 257 257 257 254 251 248 246 244 244 247 250 251 249 248 247 246 246 243 241 239 237 235 232 230 228 228 230 233 234 232 229 226 224 221 219 220 221 221 221 222 223
299 300 299 297 295 296 298 299 301 300 298 299 295 291 287 281 275 273 272 272 272 273 277 281 280 279 278 276 276 277 276 275 275 273 271 269 267 266 265 264 264 263 260 258 258 259 259 259 258 255 251 248 245 244 246 249 250 250 248 247 247 246 243 241 239 238 235 233 231 230 229 230 232 232 230 228 228 226 224 224 224 226 226 225 225
299 297 294 293 294 298 300 301 302 301 302 301 296 291 288 285 280 276 274 272 271 270 272 276 277 278 279 278 280 282 280 277 276 275 273 267 262 261 262 262 263 262 261 258 257 258 258 258 260 260 258 255 252 248 244 244 247 248 248 247 246 246 245 243 241 240 238 236 233 231 231 230 230 231 231 230 229 229 229 229 228 230 231 231 229
304 300 298 299 302 304 305 304 304 306 307 305 301 296 292 290 286 281 278 276 275 272 270 272 276 280 281 281 282 282 281 280 279 278 276 270 260 257 258 260 260 261 262 260 257 256 256 256 256 258 261 260 258 252 245 243 245 247 246 245 244 243 244 244 243 242 241 239 237 234 233 232 231 231 231 231 231 231 231 232 233 233 233 234 234
310 307 306 308 308 308 307 306 307 309 310 307 304 300 297 294 292 288 284 281 279 277 276 275 276 277 278 279 282 281 279 279 279 278 277 273 267 261 259 259 260 261 260 258 255 253 253 253 252 253 257 259 257 251 245 242 243 245 245 245 244 242 242 243 244 243 242 242 240 238 235 234 233 231 231 231 232 232 232 233 235 235 235 235 236
312 309 309 310 310 311 309 308 309 310 310 308 305 302 299 298 297 295 293 289 284 281 280 280 279 278 277 279 280 279 279 278 276 275 274 273 272 268 264 261 261 261 261 260 258 254 253 252 252 250 250 251 250 247 244 242 241 242 244 245 244 243 242 242 243 243 244 243 243 242 239 238 236 235 233 231 232 233 233 233 233 235 236 236 237
309 307 307 308 308 308 306 306 308 310 311 312 311 309 306 304 301 294 291 291 288 286 285 286 286 285 286 287 283 276 275 276 275 274 272 271 272 272 270 267 265 263 261 262 262 260 258 256 255 254 251 248 246 244 241 239 237 238 241 243 243 242 241 241 241 242 243 244 243 243 242 241 239 238 237 234 233 233 233 234 233 233 234 236 237
312 312 311 311 310 309 309 310 314 317 319 318 317 315 312 308 303 293 288 288 288 288 287 288 289 290 293 293 289 282 276 272 269 269 270 268 268 269 270 269 267 265 262 262 262 261 259 257 255 253 252 250 249 247 245 242 238 235 237 240 240 241 240 240 240 241 242 243 243 243 243 242 241 240 239 238 236 234 234 234 234 232 232 233 235
324 323 322 321 321 318 319 321 323 325 324 321 319 318 315 311 305 297 293 290 287 283 283 285 288 291 294 294 291 288 284 278 272 269 269 269 269 269 270 269 267 264 263 263 263 263 261 257 254 251 250 250 250 249 250 250 246 238 235 238 240 239 239 239 239 239 240 241 242 243 242 242 241 241 240 240 238 237 236 235 235 234 233 232 232
330 328 326 325 324 322 323 325 325 324 323 323 322 322 319 314 307 300 295 292 288 282 280 282 286 290 292 292 292 292 292 291 288 281 272 269 271 273 274 275 274 270 266 263 263 264 264 260 256 251 250 252 251 249 249 251 251 245 237 236 238 238 238 237 238 239 239 239 240 241 242 241 241 241 240 240 240 239 237 237 236 236 235 234 233
330 328 327 324 322 322 323 324 324 324 324 325 325 324 321 316 310 303 298 296 293 288 284 284 286 288 288 288 290 294 297 298 298 294 288 278 272 273 274 276 278 278 275 270 267 265 264 263 259 255 254 255 254 252 250 249 250 251 246 240 237 237 237 236 236 238 238 238 239 239 240 240 240 241 240 240 239 240 239 238 237 237 236 236 236
332 329 326 322 322 324 327 328 328 327 327 328 328 326 323 319 315 310 306 303 301 298 296 292 289 286 286 288 291 295 298 299 298 298 298 295 286 279 276 275 276 278 278 276 274 271 268 265 262 260 259 258 256 253 251 248 246 247 248 247 242 239 237 236 235 236 236 237 238 238 238 237 237 239 240 240 239 239 239 239 238 238 237 237 237
333 331 329 326 327 330 333 333 333 332 332 333 330 325 323 319 314 311 309 308 305 304 303 300 296 292 290 291 292 294 296 297 298 298 300 301 299 295 287 281 277 275 275 276 276 276 274 272 268 264 262 260 258 254 252 251 249 246 245 245 245 241 237 235 235 234 234 236 237 238 238 238 236 236 237 240 240 239 238 238 238 238 238 237 237
334 333 333 330 330 332 334 334 334 334 334 333 330 324 322 318 313 309 307 306 304 304 305 304 304 302 298 294 292 292 293 295 296 297 299 299 300 301 298 292 285 277 274 273 274 275 276 276 274 269 265 262 259 256 254 252 249 248 246 243 242 241 237 235 235 233 234 236 237 238 238 238 238 236 235 236 238 239 238 238 238 238 238 238 238
335 334 333 332 333 333 333 333 333 333 333 333 330 325 322 319 315 311 307 306 305 305 306 306 307 307 305 302 298 296 295 294 294 296 297 298 299 301 301 299 295 290 285 280 276 275 273 274 274 271 267 263 260 258 256 252 247 246 245 241 239 239 239 237 236 235 235 237 238 238 237 236 237 238 237 235 235 237 238 238 237 237 238 238 239
336 334 334 334 334 333 333 334 334 332 331 331 329 324 320 318 315 312 310 308 308 308 308 308 308 308 306 305 303 301 298 296 296 296 297 298 299 301 302 301 297 294 293 290 287 283 278 273 272 271 268 263 259 257 254 251 248 246 244 240 237 238 239 240 239 237 237 238 238 238 236 235 235 236 238 237 236 235 236 237 237 237 237 238 239
338 335 334 333 333 333 332 333 333 330 328 327 325 320 316 315 314 312 310 310 309 309 308 309 308 307 305 304 303 303 301 300 298 297 298 299 300 301 303 303 301 296 293 292 291 291 288 282 277 273 269 264 259 256 253 250 247 245 244 242 239 238 239 240 240 238 237 237 237 237 236 234 234 234 236 237 238 237 236 236 237 237 237 238 239
338 335 334 332 330 330 329 329 328 326 324 322 320 317 313 312 312 311 309 306 306 306 307 307 305 303 303 303 303 302 303 303 302 299 297 298 299 300 300 300 300 298 294 292 292 290 289 289 289 282 273 267 261 258 254 251 248 245 244 243 240 238 238 239 239 237 235 236 235 233 233 233 233 233 234 235 236 238 237 236 236 237 237 237 239
338 335 332 329 327 326 325 324 323 322 320 317 316 314 311 310 308 307 304 302 302 304 305 305 304 302 301 302 302 301 303 304 303 301 299 298 298 298 298 297 296 295 291 289 291 292 291 291 294 292 282 271 264 261 258 254 251 249 247 246 243 240 239 238 237 235 235 236 235 231 229 231 232 232 232 233 234 236 238 238 237 237 236 236 238
339 336 331 327 325 324 323 321 319 317 315 314 313 311 310 308 306 303 302 301 302 304 304 305 304 303 302 301 302 302 304 304 303 303 302 300 298 297 298 297 297 296 293 289 288 290 294 295 296 297 291 279 268 263 260 258 255 252 250 248 245 242 241 239 237 234 234 235 235 232 230 230 232 231 231 231 232 233 235 238 238 237 237 236 236
340 335 328 324 322 321 320 317 314 312 311 310 310 310 309 307 303 301 301 301 302 303 303 304 303 303 303 303 304 304 305 304 304 304 303 302 300 299 298 298 297 297 296 294 292 292 295 300 301 301 298 288 274 265 260 258 256 255 253 250 248 244 241 241 239 235 233 233 234 234 232 231 232 232 231 231 232 232 233 235 237 238 237 236 236
339 333 327 323 320 317 315 313 311 310 309 308 308 308 306 304 301 299 298 298 298 298 300 301 302 303 305 306 306 306 306 306 306 306 305 303 300 299 298 297 297 297 296 295 296 296 297 301 304 304 303 297 281 267 260 257 256 254 253 251 249 246 243 241 241 238 234 232 232 232 232 231 232 234 233 231 231 232 232 234 236 237 237 237 236
337 333 329 323 317 314 313 313 311 311 311 310 308 306 304 303 301 299 298 295 294 296 299 301 303 305 307 307 305 305 305 305 305 306 305 302 300 298 297 297 296 296 297 296 296 298 301 303 305 306 305 303 291 273 260 255 254 253 252 251 248 247 245 243 241 239 236 233 231 229 230 231 233 234 233 231 230 231 231 232 234 237 238 237 237
336 333 328 321 315 314 315 316 314 313 313 312 311 309 308 308 307 305 301 298 299 301 303 304 306 307 308 307 305 304 303 303 303 303 302 299 298 297 296 296 296 296 296 296 296 298 303 306 308 309 309 307 300 284 265 253 250 250 250 250 248 245 244 243 242 240 237 234 232 229 229 230 231 232 232 231 231 230 230 231 233 235 237 238 237
335 331 326 320 315 313 313 316 319 319 316 314 316 318 318 315 312 307 304 304 307 307 307 307 307 307 308 307 307 306 305 304 302 301 299 296 295 295 296 296 296 297 297 298 298 299 302 307 311 313 313 310 305 295 276 257 247 246 247 248 247 245 243 242 241 240 238 234 232 230 229 229 230 231 231 230 230 230 230 231 232 234 236 237 237
334 332 329 324 316 309 307 312 319 322 319 316 317 319 320 316 311 308 308 310 311 310 308 308 308 309 309 308 309 308 306 305 303 301 298 296 295 295 296 297 298 299 301 302 302 301 302 307 313 315 316 313 308 302 286 266 251 244 243 244 245 244 242 241 239 239 238 235 232 230 229 229 229 229 230 229 229 229 230 231 232 233 235 236 236
335 334 333 328 320 313 310 312 317 319 319 318 318 318 318 315 312 312 313 314 313 310 307 308 309 310 310 311 311 308 307 306 306 304 302 299 297 295 296 297 299 301 304 305 305 304 304 308 314 317 317 315 311 307 296 275 258 249 242 240 242 243 241 239 238 237 237 235 232 230 230 230 229 228 227 227 225 225 227 230 232 233 234 236 236
336 335 333 328 324 321 319 318 318 319 321 322 322 320 317 315 314 314 314 313 312 309 307 308 309 310 311 311 310 307 307 308 308 306 305 303 300 296 296 297 299 302 305 306 305 304 304 307 314 318 318 316 314 312 303 283 263 255 248 240 238 240 240 239 237 235 235 235 234 231 231 231 230 228 226 225 224 223 225 228 231 233 234 235 236
337 339 338 337 336 334 331 328 326 326 325 324 322 318 315 313 313 313 312 311 311 310 310 310 309 309 309 308 307 306 307 309 309 308 306 304 300 297 297 299 301 304 306 306 305 304 304 308 314 318 319 317 316 315 307 289 270 259 253 245 238 237 238 238 237 236 234 234 235 233 231 230 230 228 227 226 225 225 225 227 229 231 232 234 235
344 349 347 345 342 337 334 330 328 326 323 321 318 315 314 313 313 313 312 310 310 310 310 309 308 308 307 305 304 304 306 308 311 310 308 305 301 301 302 303 304 305 306 307 306 305 306 308 313 318 319 318 318 318 310 293 278 268 260 249 240 236 236 236 236 236 235 234 234 234 233 230 229 229 229 229 228 228 228 228 229 229 231 233 236
354 357 351 345 341 337 334 331 327 325 322 320 318 316 316 314 313 312 310 308 308 308 308 307 306 305 304 303 302 305 309 311 313 313 311 307 304 305 306 307 308 308 308 308 306 306 306 308 313 317 319 320 321 320 313 295 283 280 273 258 243 236 235 235 235 235 235 234 233 233 233 231 229 229 230 231 230 230 230 231 231 231 232 234 237
352 351 345 340 337 337 336 331 327 324 321 319 317 316 315 313 311 308 306 305 305 306 308 307 305 303 301 302 304 308 311 313 313 312 311 309 308 308 310 310 310 311 310 308 307 306 307 309 314 316 319 323 324 322 316 297 282 282 283 271 251 239 235 235 235 234 233 233 232 232 232 231 230 229 229 231 231 230 231 231 231 232 234 236 238
339 336 335 334 332 333 333 330 327 323 320 317 314 313 312 309 308 306 306 306 306 306 308 306 305 303 302 303 305 307 310 311 311 311 310 310 310 311 312 312 311 311 310 308 307 308 308 310 314 317 321 327 328 324 320 305 284 278 281 278 263 246 238 235 235 235 233 233 233 233 232 232 231 230 230 230 230 231 230 230 230 232 233 236 238
332 330 330 330 328 327 325 325 324 321 316 314 312 312 311 308 307 307 307 307 306 305 305 303 303 302 302 302 302 304 307 308 310 310 310 311 311 313 314 313 312 311 309 307 308 308 309 312 315 318 323 329 330 326 321 313 297 281 277 279 273 257 244 237 235 235 235 234 234 233 233 232 233 232 231 229 229 229 229 228 229 231 232 234 236
328 326 326 325 324 324 322 320 320 319 316 313 312 311 309 306 307 307 306 305 304 304 304 304 304 303 301 301 301 302 304 306 308 310 311 311 312 313 314 314 312 310 308 308 309 310 313 316 317 319 323 327 328 325 318 313 304 287 275 274 275 267 252 242 236 234 235 236 236 234 232 231 233 233 231 230 228 228 228 228 229 231 233 233 234
324 322 321 319 320 323 322 318 316 317 316 314 313 311 308 305 305 305 304 304 304 305 306 307 306 304 302 301 302 303 304 306 308 308 309 310 311 312 313 313 311 310 309 310 311 312 316 318 318 319 323 325 326 325 320 312 304 293 279 269 269 271 262 248 240 234 233 236 238 236 231 229 232 234 232 230 229 228 229 231 232 234 235 235 235
316 316 315 315 316 317 319 320 319 319 317 313 312 312 308 304 302 302 303 304 305 306 307 308 306 304 303 302 302 304 306 307 307 306 308 310 310 310 312 312 311 310 310 312 313 315 317 318 317 318 322 324 325 327 325 317 306 296 286 272 263 264 264 255 244 237 234 235 237 237 233 230 231 234 233 231 230 230 231 233 235 237 237 236 236
310 311 309 309 310 312 315 318 321 321 318 313 311 310 306 302 300 301 302 303 304 306 307 308 306 303 301 302 303 305 306 306 306 307 308 310 309 308 310 311 310 311 312 313 313 314 316 316 315 317 321 325 326 328 329 323 311 298 289 280 268 261 260 258 249 240 234 234 236 237 235 231 230 232 232 231 231 232 233 235 236 237 237 236 235
305 304 302 303 304 305 308 312 315 318 317 315 311 306 302 300 299 300 301 303 304 305 306 306 305 302 301 302 304 305 306 306 307 307 308 308 307 307 308 308 309 311 312 312 311 313 314 314 315 318 322 326 327 328 329 327 316 299 287 283 277 268 261 257 251 241 234 232 234 237 235 232 231 232 231 230 231 232 233 234 234 235 235 233 233
299 297 296 297 296 294 297 302 305 310 315 314 310 304 301 300 300 299 299 301 302 304 304 303 302 302 302 303 304 305 306 306 307 307 307 307 306 306 306 305 307 310 311 310 310 312 312 313 316 321 324 326 326 327 328 326 318 302 285 279 278 274 266 258 251 243 236 232 233 236 236 232 231 233 232 231 232 231 231 232 233 233 233 232 232
289 288 286 286 286 285 289 295 298 303 310 309 305 301 301 301 300 298 296 297 299 301 302 301 299 300 302 303 303 305 306 306 306 306 307 307 308 307 306 305 308 310 309 308 309 309 311 314 318 323 325 324 325 326 326 325 319 304 287 279 277 275 267 259 252 244 238 233 231 234 236 233 231 232 234 234 234 232 230 231 232 232 231 231 232
292 293 288 281 275 271 273 284 292 297 302 303 300 300 301 301 300 297 294 293 296 299 300 298 297 299 301 302 303 305 306 305 304 305 307 308 309 309 307 307 308 309 308 307 309 310 312 315 318 321 322 323 326 328 326 324 319 307 291 282 279 276 269 259 253 246 239 233 229 231 234 233 230 230 233 235 234 231 229 229 230 231 230 229 230
303 304 300 292 283 275 270 273 281 288 294 297 297 297 299 299 296 294 292 292 294 298 297 295 296 298 299 301 302 304 305 304 304 306 306 306 308 308 308 307 308 308 309 310 312 314 314 317 318 319 321 325 329 330 327 323 319 311 297 284 280 278 271 260 251 246 240 231 226 228 231 231 229 229 231 235 234 229 227 228 228 228 228 227 228
Height
3224 3223 3223 3223 3222 3222 3221 3221 3220 3219 3219 3218 3217 3217 3216 3216 3216 3216 3215 3214 3213 3212 3212 3212 3212 3212 3211 3210 3209 3208 3207 3207 3207 3207 3207 3207 3207 3207 3208 3208 3208 3208 3209 3209 3209 3209 3209 3209 3209 3209 3209 3209 3210 3210 3210 3211 3211 3212 3212 3212 3213 3213 3214 3215 3215 3216 3216 3216 3217 3217 3218 3218 3219 3219 3220 3220 3220 3220 3220 3220 3220 3220 3221 3221 3221
3223 3223 3222 3221 3221 3220 3220 3220 3219 3218 3218 3217 3216 3216 3215 3215 3215 3214 3214 3213 3212 3211 3210 3210 3210 3210 3210 3209 3208 3207 3206 3206 3206 3206 3206 3206 3206 3206 3206 3207 3207 3207 3208 3208 3207 3208 3208 3208 3208 3208 3208 3208 3209 3209 3209 3210 3210 3211 3211 3211 3212 3212 3213 3214 3214 3215 3216 3216 3216 3217 3217 3217 3218 3219 3219 3220 3220 3220 3220 3220 3220 3220 3220 3221 3221
3222 3222 3221 3220 3220 3219 3219 3218 3218 3217 3216 3216 3215 3214 3214 3213 3213 3212 3212 3211 3210 3209 3209 3208 3208 3208 3208 3208 3207 3206 3205 3205 3204 3204 3204 3204 3204 3204 3204 3205 3205 3205 3206 3206 3206 3206 3207 3207 3207 3207 3207 3208 3208 3208 3208 3209 3209 3210 3210 3211 3211 3211 3212 3212 3213 3214 3215 3215 3216 3216 3216 3217 3217 3218 3218 3219 3220 3220 3220 3220 3220 3220 3220 3221 3221
3222 3221 3221 3220 3219 3219 3218 3217 3216 3216 3215 3215 3214 3213 3212 3212 3211 3210 3210 3209 3208 3207 3207 3206 3206 3205 3206 3206 3206 3205 3204 3203 3203 3203 3202 3202 3202 3203 3203 3203 3203 3204 3204 3204 3205 3205 3205 3206 3206 3206 3206 3206 3207 3207 3207 3208 3208 3208 3209 3209 3210 3210 3211 3211 3212 3213 3213 3214 3215 3215 3216 3216 3216 3217 3217 3218 3219 3219 3220 3220 3220 3220 3221 3221 3221
3220 3220 3219 3219 3219 3218 3217 3216 3215 3214 3214 3213 3212 3211 3210 3210 3209 3208 3207 3207 3206 3205 3205 3204 3204 3203 3203 3203 3204 3204 3203 3202 3201 3201 3201 3201 3200 3201 3201 3201 3202 3202 3202 3202 3203 3203 3204 3204 3204 3204 3204 3205 3205 3205 3206 3206 3206 3207 3207 3208 3209 3209 3209 3210 3210 3211 3212 3213 3214 3214 3215 3215 3215 3216 3216 3217 3218 3219 3219 3220 3220 3220 3220 3221 3221
3219 3218 3218 3218 3217 3217 3216 3215 3214 3213 3212 3211 3210 3209 3208 3208 3207 3206 3205 3205 3204 3203 3203 3202 3201 3201 3200 3200 3201 3201 3201 3200 3200 3199 3199 3199 3199 3199 3200 3200 3200 3200 3200 3201 3201 3201 3201 3202 3202 3202 3202 3203 3203 3204 3204 3204 3205 3205 3206 3206 3207 3208 3208 3208 3209 3210 3210 3211 3212 3213 3214 3214 3215 3215 3215 3216 3217 3218 3218 3219 3219 3220 3220 3220 3220
3218 3217 3216 3216 3216 3215 3214 3213 3212 3211 3210 3209 3208 3207 3206 3205 3205 3204 3203 3203 3202 3201 3200 3200 3199 3199 3198 3198 3197 3198 3198 3198 3197 3197 3197 3196 3197 3197 3198 3198 3199 3199 3199 3199 3199 3199 3199 3199 3200 3200 3200 3201 3201 3202 3202 3203 3203 3204 3204 3205 3205 3206 3207 3207 3208 3208 3209 3209 3210 3211 3212 3213 3214 3214 3214 3215 3215 3216 3217 3218 3218 3219 3219 3220 3220
3216 3215 3214 3213 3213 3212 3211 3211 3209 3208 3207 3206 3205 3204 3203 3203 3202 3201 3201 3200 3199 3199 3198 3197 3197 3196 3196 3196 3195 3195 3195 3195 3195 3195 3195 3194 3194 3194 3195 3196 3197 3197 3197 3197 3197 3197 3197 3197 3198 3198 3198 3199 3199 3200 3200 3201 3202 3202 3203 3203 3204 3205 3205 3206 3206 3207 3207 3208 3208 3209 3210 3211 3212 3213 3213 3214 3214 3215 3216 3216 3217 3218 3218 3219 3219
3215 3214 3213 3211 3211 3210 3209 3208 3206 3205 3204 3203 3202 3201 3200 3200 3200 3199 3198 3197 3197 3196 3195 3194 3194 3194 3193 3193 3193 3193 3193 3192 3192 3192 3193 3192 3192 3192 3192 3193 3194 3194 3195 3196 3196 3195 3195 3196 3196 3196 3196 3196 3197 3197 3198 3199 3200 3201 3201 3202 3202 3203 3204 3204 3204 3205 3206 3206 3207 3207 3208 3209 3210 3211 3212 3212 3213 3214 3214 3215 3216 3216 3217 3218 3218
3213 3212 3211 3210 3209 3208 3206 3205 3204 3203 3202 3201 3199 3198 3198 3197 3197 3196 3195 3195 3194 3193 3193 3192 3192 3191 3191 3191 3190 3190 3190 3190 3189 3189 3190 3191 3191 3190 3190 3190 3191 3191 3192 3193 3194 3194 3194 3194 3194 3194 3194 3194 3195 3195 3196 3197 3198 3199 3199 3200 3200 3201 3202 3202 3203 3203 3204 3204 3205 3206 3206 3207 3208 3209 3210 3210 3211 3212 3213 3214 3214 3215 3216 3216 3217
3212 3211 3210 3208 3207 3205 3204 3203 3202 3201 3200 3199 3198 3196 3195 3195 3194 3193 3193 3192 3192 3191 3190 3190 3190 3189 3189 3189 3188 3188 3188 3188 3187 3187 3187 3188 3189 3188 3187 3187 3188 3188 3189 3190 3191 3191 3191 3192 3191 3191 3192 3192 3193 3193 3193 3194 3195 3196 3197 3197 3198 3199 3200 3201 3201 3202 3202 3203 3203 3204 3204 3205 3206 3207 3208 3208 3209 3210 3211 3212 3213 3214 3214 3215 3215
3209 3208 3207 3206 3204 3203 3201 3200 3199 3198 3198 3197 3196 3195 3193 3193 3192 3191 3190 3190 3189 3188 3187 3187 3187 3187 3187 3186 3186 3186 3185 3185 3185 3184 3184 3185 3186 3186 3185 3185 3185 3186 3186 3187 3187 3188 3188 3188 3188 3188 3189 3189 3190 3190 3191 3192 3193 3194 3194 3195 3195 3196 3197 3198 3199 3200 3200 3201 3201 3202 3202 3203 3204 3205 3206 3206 3207 3208 3209 3210 3211 3212 3213 3213 3214
3206 3205 3203 3202 3201 3200 3199 3198 3197 3196 3196 3195 3194 3193 3191 3191 3190 3189 3188 3188 3187 3185 3184 3184 3185 3184 3184 3184 3184 3183 3183 3183 3183 3182 3182 3182 3183 3183 3183 3183 3183 3183 3183 3183 3183 3183 3184 3184 3184 3185 3185 3186 3186 3186 3187 3188 3189 3190 3191 3192 3193 3193 3194 3195 3197 3198 3198 3199 3200 3200 3201 3201 3202 3203 3203 3204 3205 3206 3207 3208 3209 3210 3211 3212 3213
3203 3202 3201 3200 3199 3198 3197 3196 3196 3195 3194 3193 3192 3191 3190 3189 3188 3187 3186 3186 3185 3183 3182 3182 3182 3182 3181 3182 3182 3181 3180 3180 3180 3180 3180 3179 3180 3180 3180 3180 3180 3180 3179 3179 3180 3180 3180 3181 3181 3181 3181 3182 3182 3183 3183 3184 3185 3187 3188 3189 3190 3190 3191 3192 3194 3195 3196 3197 3198 3198 3199 3200 3200 3201 3202 3202 3203 3204 3205 3206 3207 3208 3209 3210 3211
3202 3200 3199 3198 3197 3197 3196 3195 3194 3194 3193 3191 3190 3189 3188 3187 3186 3186 3185 3184 3183 3181 3180 3180 3180 3179 3178 3178 3179 3179 3178 3178 3178 3178 3178 3178 3177 3177 3177 3177 3177 3176 3176 3176 3177 3177 3178 3178 3178 3178 3178 3179 3179 3179 3179 3179 3180 3182 3184 3185 3186 3187 3188 3189 3190 3192 3193 3194 3195 3196 3197 3198 3199 3199 3200 3201 3201 3202 3203 3204 3205 3206 3207 3208 3209
3200 3199 3198 3197 3196 3195 3194 3194 3193 3192 3191 3190 3188 3188 3187 3186 3185 3184 3183 3182 3181 3180 3178 3178 3177 3176 3176 3176 3176 3176 3176 3176 3176 3176 3176 3176 3175 3174 3174 3174 3174 3173 3173 3173 3173 3174 3174 3174 3175 3175 3175 3176 3176 3176 3175 3174 3174 3176 3178 3180 3182 3184 3185 3186 3187 3188 3189 3191 3192 3193 3194 3195 3197 3197 3198 3199 3199 3200 3201 3202 3203 3203 3204 3205 3206
3198 3197 3196 3195 3194 3193 3193 3192 3191 3190 3189 3188 3187 3186 3185 3184 3183 3182 3181 3180 3180 3178 3177 3176 3176 3175 3174 3173 3173 3172 3173 3173 3174 3174 3174 3173 3173 3173 3171 3171 3171 3171 3171 3170 3170 3170 3171 3171 3171 3171 3171 3172 3172 3173 3173 3173 3172 3171 3173 3176 3178 3179 3181 3182 3183 3184 3186 3187 3188 3190 3191 3192 3193 3195 3196 3197 3197 3198 3199 3199 3200 3201 3202 3203 3204
3196 3195 3194 3194 3193 3192 3191 3190 3189 3188 3187 3186 3185 3184 3183 3182 3181 3180 3179 3178 3178 3177 3175 3175 3174 3173 3172 3171 3170 3169 3169 3169 3169 3170 3171 3171 3171 3170 3169 3168 3168 3168 3168 3168 3167 3167 3167 3167 3168 3168 3168 3168 3168 3169 3170 3171 3171 3170 3169 3171 3174 3175 3177 3177 3179 3180 3182 3183 3185 3186 3187 3189 3190 3191 3192 3194 3195 3196 3196 3197 3198 3199 3200 3201 3201
3195 3194 3193 3192 3191 3190 3189 3188 3187 3186 3185 3184 3183 3182 3181 3180 3179 3178 3177 3176 3176 3175 3174 3173 3172 3172 3171 3170 3169 3167 3167 3166 3166 3165 3166 3168 3169 3168 3167 3167 3166 3165 3165 3165 3164 3164 3164 3164 3164 3165 3165 3165 3166 3166 3166 3167 3169 3169 3169 3169 3170 3171 3172 3173 3174 3176 3178 3179 3181 3182 3184 3185 3186 3188 3189 3190 3192 3193 3194 3195 3196 3197 3198 3199 3199
3194 3193 3192 3191 3190 3189 3188 3186 3185 3184 3183 3182 3181 3180 3179 3178 3177 3176 3175 3174 3174 3173 3172 3171 3171 3170 3169 3168 3167 3166 3165 3164 3163 3162 3161 3163 3165 3165 3165 3164 3164 3162 3162 3161 3161 3161 3161 3160 3161 3161 3162 3163 3163 3163 3163 3163 3164 3165 3166 3167 3168 3168 3169 3170 3171 3172 3174 3175 3177 3178 3180 3181 3182 3184 3185 3187 3188 3189 3190 3192 3193 3194 3195 3196 3197
3193 3192 3190 3189 3188 3187 3186 3185 3184 3182 3181 3180 3179 3178 3177 3176 3175 3174 3173 3172 3171 3171 3170 3169 3168 3168 3167 3166 3165 3165 3164 3162 3161 3160 3159 3158 3160 3161 3162 3161 3161 3160 3159 3158 3158 3158 3157 3157 3157 3157 3158 3158 3159 3158 3159 3159 3160 3161 3162 3163 3165 3165 3165 3166 3167 3168 3170 3171 3173 3174 3176 3177 3178 3180 3181 3183 3185 3186 3187 3188 3190 3191 3192 3193 3194
3191 3190 3189 3187 3186 3185 3184 3183 3182 3181 3179 3178 3177 3176 3175 3174 3173 3172 3171 3170 3169 3169 3168 3167 3166 3165 3165 3164 3163 3162 3162 3161 3159 3158 3157 3156 3156 3157 3157 3158 3158 3158 3156 3156 3156 3155 3154 3153 3153 3153 3153 3153 3154 3154 3154 3155 3156 3156 3157 3159 3160 3161 3161 3162 3163 3164 3165 3167 3169 3170 3172 3173 3174 3176 3177 3179 3181 3182 3184 3185 3186 3187 3189 3190 3191
3189 3188 3187 3185 3184 3183 3182 3181 3180 3178 3177 3177 3175 3174 3173 3172 3171 3170 3169 3169 3168 3167 3166 3165 3164 3163 3162 3162 3161 3160 3159 3159 3158 3156 3155 3154 3153 3153 3154 3154 3154 3154 3153 3153 3153 3153 3152 3151 3150 3149 3149 3149 3149 3150 3150 3151 3151 3152 3153 3154 3155 3156 3157 3158 3159 3159 3161 3163 3164 3166 3167 3169 3171 3172 3173 3174 3176 3178 3180 3181 3182 3184 3185 3187 3188
3187 3186 3184 3183 3182 3181 3180 3179 3177 3176 3175 3174 3174 3172 3171 3170 3169 3168 3168 3167 3166 3165 3164 3164 3163 3161 3160 3160 3159 3158 3157 3156 3155 3154 3153 3152 3151 3150 3150 3150 3151 3150 3150 3150 3150 3150 3149 3147 3146 3146 3145 3145 3145 3145 3145 3146 3147 3148 3148 3149 3150 3151 3152 3153 3154 3155 3156 3158 3159 3161 3163 3165 3166 3168 3169 3170 3172 3174 3175 3177 3179 3180 3182 3183 3184
3185 3183 3182 3181 3180 3179 3178 3177 3176 3175 3173 3173 3172 3171 3170 3169 3168 3167 3166 3165 3164 3163 3162 3162 3161 3160 3159 3158 3157 3156 3155 3154 3153 3152 3151 3150 3148 3148 3147 3146 3147 3147 3147 3146 3146 3147 3146 3144 3143 3142 3142 3141 3140 3140 3140 3141 3142 3143 3143 3143 3145 3146 3147 3148 3149 3150 3151 3153 3154 3156 3158 3160 3161 3163 3164 3166 3168 3169 3171 3173 3174 3176 3178 3179 3181
3183 3182 3180 3179 3178 3177 3176 3175 3174 3173 3172 3171 3170 3169 3168 3167 3166 3165 3164 3163 3162 3161 3160 3160 3159 3158 3157 3156 3155 3154 3153 3152 3151 3150 3149 3148 3146 3145 3144 3144 3143 3144 3144 3144 3143 3143 3142 3142 3140 3139 3138 3137 3136 3135 3135 3136 3136 3137 3137 3137 3139 3140 3141 3143 3144 3145 3147 3148 3149 3151 3153 3155 3157 3158 3160 3162 3163 3165 3167 3168 3170 3172 3174 3175 3177
3182 3180 3179 3178 3176 3175 3174 3173 3172 3171 3170 3169 3168 3167 3166 3165 3164 3164 3163 3161 3160 3159 3159 3158 3157 3156 3155 3154 3153 3152 3151 3150 3149 3148 3147 3146 3144 3143 3141 3140 3140 3140 3141 3141 3140 3139 3138 3138 3138 3136 3134 3134 3133 3131 3130 3131 3131 3132 3132 3132 3133 3135 3136 3137 3139 3140 3142 3143 3144 3146 3148 3150 3151 3153 3155 3157 3159 3161 3163 3164 3166 3168 3169 3171 3173
3181 3178 3177 3176 3175 3173 3172 3171 3170 3169 3168 3167 3167 3166 3164 3163 3163 3162 3161 3160 3158 3157 3157 3156 3155 3154 3152 3151 3150 3149 3149 3148 3147 3146 3145 3143 3142 3141 3139 3138 3136 3135 3136 3137 3137 3136 3134 3134 3134 3133 3131 3129 3128 3127 3126 3126 3126 3126 3127 3127 3128 3129 3131 3132 3133 3134 3136 3138 3140 3141 3143 3144 3146 3148 3150 3152 3154 3156 3158 3160 3162 3163 3165 3167 3168
3179 3177 3176 3174 3173 3172 3171 3170 3169 3168 3167 3166 3165 3164 3163 3161 3160 3160 3159 3158 3157 3155 3155 3153 3152 3151 3150 3149 3148 3147 3146 3145 3144 3143 3142 3141 3140 3138 3137 3135 3134 3132 3131 3131 3132 3132 3130 3129 3129 3128 3127 3126 3124 3123 3122 3121 3122 3121 3121 3121 3122 3124 3126 3127 3127 3129 3130 3132 3134 3136 3138 3139 3141 3143 3145 3147 3149 3151 3153 3155 3157 3159 3161 3162 3164
3178 3176 3174 3173 3171 3170 3169 3168 3167 3166 3165 3164 3163 3162 3161 3160 3159 3158 3157 3156 3155 3153 3152 3151 3150 3149 3148 3146 3145 3144 3144 3143 3142 3141 3140 3138 3137 3136 3134 3133 3131 3129 3127 3125 3126 3127 3126 3125 3125 3123 3122 3121 3120 3118 3117 3116 3116 3116 3116 3116 3117 3119 3120 3122 3122 3123 3125 3126 3128 3130 3132 3134 3136 3138 3140 3142 3144 3146 3148 3150 3152 3154 3156 3158 3159
3176 3174 3172 3170 3169 3168 3167 3166 3165 3164 3163 3162 3161 3160 3159 3158 3157 3156 3155 3154 3153 3152 3150 3149 3147 3146 3145 3144 3143 3142 3141 3140 3139 3138 3136 3135 3134 3133 3132 3130 3128 3127 3125 3122 3121 3122 3122 3121 3120 3119 3117 3116 3115 3113 3112 3112 3111 3111 3110 3111 3112 3113 3114 3116 3117 3118 3120 3121 3123 3124 3126 3128 3131 3133 3135 3137 3139 3141 3143 3145 3147 3149 3151 3153 3155
3174 3172 3170 3168 3167 3166 3165 3164 3163 3162 3161 3160 3159 3158 3157 3156 3155 3154 3153 3152 3151 3149 3148 3146 3145 3144 3143 3141 3140 3139 3138 3137 3136 3135 3133 3132 3130 3129 3128 3127 3126 3124 3123 3120 3117 3117 3117 3116 3115 3114 3112 3110 3109 3107 3106 3106 3106 3105 3104 3105 3106 3108 3108 3110 3111 3113 3114 3116 3118 3119 3121 3123 3125 3127 3130 3132 3134 3136 3139 3141 3143 3145 3147 3149 3151
3172 3170 3168 3167 3166 3164 3163 3162 3161 3159 3158 3157 3156 3155 3154 3153 3152 3151 3150 3149 3148 3146 3145 3144 3142 3141 3140 3139 3137 3136 3135 3134 3133 3131 3130 3128 3127 3125 3124 3123 3123 3122 3120 3118 3114 3112 3112 3112 3111 3109 3107 3104 3103 3102 3099 3099 3100 3099 3098 3099 3101 3102 3103 3104 3106 3107 3109 3111 3113 3114 3116 3118 3120 3122 3125 3127 3129 3131 3134 3136 3138 3140 3142 3144 3146
3170 3168 3167 3165 3164 3163 3162 3161 3159 3158 3156 3155 3154 3153 3152 3151 3150 3149 3148 3147 3145 3144 3142 3141 3139 3138 3137 3136 3134 3133 3132 3131 3130 3128 3127 3125 3123 3122 3121 3120 3119 3119 3117 3114 3112 3108 3106 3107 3106 3104 3102 3100 3097 3096 3094 3092 3093 3093 3093 3093 3094 3096 3097 3099 3100 3102 3104 3106 3107 3110 3111 3113 3115 3117 3119 3122 3124 3126 3129 3131 3134 3136 3138 3140 3142
3167 3166 3165 3164 3163 3162 3161 3159 3158 3157 3155 3154 3153 3151 3150 3149 3148 3146 3145 3143 3142 3141 3139 3138 3137 3136 3134 3133 3132 3130 3129 3128 3127 3125 3123 3122 3121 3119 3118 3117 3115 3115 3114 3112 3109 3105 3102 3101 3102 3100 3097 3095 3092 3090 3088 3086 3086 3086 3086 3087 3088 3089 3091 3093 3095 3097 3099 3101 3103 3104 3106 3108 3110 3112 3114 3116 3118 3121 3123 3126 3128 3131 3133 3135 3137
3165 3164 3163 3162 3161 3160 3159 3158 3157 3155 3154 3152 3151 3149 3148 3146 3145 3144 3142 3141 3139 3138 3137 3135 3134 3133 3131 3130 3129 3127 3126 3125 3124 3122 3121 3119 3118 3116 3115 3114 3112 3111 3111 3109 3106 3103 3099 3097 3097 3096 3092 3090 3087 3085 3082 3080 3080 3079 3079 3081 3082 3083 3085 3087 3089 3091 3094 3096 3098 3099 3101 3103 3105 3107 3109 3111 3113 3115 3118 3120 3123 3125 3128 3131 3133
3163 3161 3160 3159 3158 3157 3157 3156 3155 3153 3152 3150 3149 3147 3146 3144 3143 3142 3140 3139 3137 3136 3134 3133 3132 3130 3129 3128 3126 3125 3123 3122 3121 3120 3118 3117 3115 3113 3112 3110 3109 3107 3107 3106 3103 3100 3097 3094 3092 3091 3089 3086 3083 3081 3077 3074 3073 3074 3073 3074 3076 3077 3079 3081 3083 3086 3089 3091 3092 3094 3096 3098 3100 3102 3104 3106 3108 3110 3112 3115 3117 3120 3123 3126 3128
3160 3158 3157 3156 3155 3154 3154 3153 3152 3151 3149 3148 3147 3145 3143 3142 3141 3139 3138 3137 3135 3133 3132 3130 3129 3128 3126 3125 3124 3122 3121 3120 3119 3117 3115 3114 3112 3110 3109 3107 3106 3104 3103 3102 3100 3097 3095 3092 3089 3086 3085 3082 3078 3076 3073 3069 3067 3067 3067 3068 3070 3071 3072 3074 3077 3080 3083 3085 3087 3089 3091 3093 3095 3097 3099 3101 3103 3106 3108 3110 3112 3115 3118 3121 3123
3157 3156 3155 3154 3154 3153 3152 3150 3149 3148 3147 3145 3144 3143 3141 3140 3138 3137 3136 3135 3133 3132 3130 3128 3127 3125 3124 3122 3121 3120 3118 3117 3116 3114 3112 3111 3109 3108 3106 3105 3103 3101 3099 3098 3096 3094 3091 3089 3086 3083 3080 3078 3074 3071 3068 3065 3063 3062 3062 3061 3063 3065 3066 3068 3070 3074 3076 3078 3081 3084 3086 3087 3089 3092 3094 3096 3099 3101 3103 3106 3108 3110 3113 3115 3118
3156 3155 3155 3154 3153 3152 3150 3148 3147 3146 3144 3143 3141 3140 3139 3137 3136 3135 3134 3133 3132 3130 3129 3127 3125 3123 3122 3120 3118 3117 3115 3114 3113 3111 3110 3108 3106 3105 3104 3102 3099 3098 3096 3094 3092 3090 3088 3086 3083 3079 3076 3074 3071 3066 3063 3061 3059 3059 3058 3056 3057 3059 3061 3062 3064 3067 3070 3072 3074 3077 3079 3081 3083 3086 3088 3090 3093 3095 3098 3100 3103 3105 3107 3110 3113
3155 3154 3153 3152 3151 3149 3148 3147 3145 3144 3143 3141 3140 3138 3137 3135 3134 3132 3131 3130 3129 3128 3126 3125 3123 3121 3119 3117 3115 3114 3112 3111 3110 3108 3107 3105 3103 3102 3101 3099 3096 3094 3092 3091 3089 3087 3084 3082 3080 3076 3073 3070 3066 3062 3060 3057 3055 3054 3054 3053 3052 3053 3055 3056 3058 3061 3064 3066 3068 3070 3073 3076 3078 3080 3083 3085 3088 3091 3093 3095 3097 3100 3103 3105 3108
3153 3152 3151 3150 3149 3148 3147 3145 3144 3142 3141 3140 3138 3137 3135 3133 3131 3130 3128 3127 3125 3124 3124 3122 3121 3119 3117 3115 3113 3111 3110 3109 3107 3105 3103 3102 3100 3099 3097 3095 3093 3091 3089 3087 3085 3083 3081 3079 3076 3073 3069 3066 3063 3060 3056 3054 3051 3050 3049 3049 3047 3048 3049 3050 3052 3056 3058 3060 3062 3065 3068 3071 3073 3075 3077 3080 3083 3086 3088 3090 3093 3095 3098 3101 3103
3150 3149 3149 3148 3147 3146 3145 3143 3142 3141 3139 3138 3136 3135 3133 3131 3129 3127 3125 3124 3123 3121 3120 3119 3118 3116 3114 3112 3111 3109 3107 3106 3104 3102 3100 3099 3097 3095 3094 3092 3090 3088 3085 3083 3082 3080 3077 3074 3072 3069 3065 3062 3060 3057 3054 3051 3048 3045 3045 3044 3043 3043 3044 3043 3046 3050 3054 3055 3057 3059 3062 3066 3068 3069 3072 3075 3078 3081 3083 3086 3089 3091 3094 3096 3098
3148 3147 3147 3146 3144 3144 3143 3141 3140 3139 3137 3136 3134 3132 3130 3128 3126 3125 3123 3121 3120 3118 3117 3115 3114 3112 3111 3109 3108 3106 3104 3103 3101 3099 3098 3096 3094 3092 3091 3089 3087 3084 3082 3080 3078 3076 3073 3070 3068 3066 3063 3059 3056 3054 3051 3047 3044 3042 3040 3039 3039 3039 3039 3038 3039 3044 3049 3051 3051 3052 3056 3060 3062 3064 3066 3070 3073 3076 3079 3082 3085 3087 3089 3091 3094
3146 3145 3144 3143 3142 3141 3140 3139 3138 3136 3135 3133 3131 3129 3127 3125 3124 3122 3120 3118 3117 3115 3114 3112 3111 3109 3107 3106 3104 3103 3101 3099 3098 3096 3095 3093 3092 3089 3087 3086 3084 3082 3079 3077 3074 3071 3069 3067 3064 3063 3061 3057 3053 3050 3047 3043 3040 3038 3036 3034 3034 3034 3034 3033 3034 3037 3043 3046 3046 3046 3049 3054 3056 3058 3060 3065 3069 3071 3074 3077 3080 3082 3084 3086 3089
3144 3143 3142 3140 3139 3137 3136 3136 3135 3133 3132 3130 3128 3126 3124 3122 3120 3119 3117 3116 3114 3113 3111 3110 3108 3106 3104 3102 3101 3100 3098 3096 3095 3093 3092 3090 3088 3087 3085 3082 3081 3079 3077 3074 3071 3068 3066 3064 3062 3060 3059 3055 3050 3046 3043 3040 3036 3033 3031 3029 3029 3028 3028 3028 3029 3031 3036 3039 3040 3041 3043 3047 3051 3052 3055 3060 3064 3066 3069 3072 3075 3077 3079 3081 3083
3141 3140 3139 3137 3135 3134 3133 3132 3131 3130 3128 3126 3124 3123 3121 3119 3117 3115 3114 3113 3111 3110 3109 3107 3105 3103 3101 3099 3098 3097 3095 3094 3092 3090 3089 3087 3085 3084 3082 3080 3078 3076 3074 3072 3069 3066 3064 3061 3059 3056 3054 3051 3047 3043 3040 3036 3032 3028 3026 3024 3023 3022 3022 3022 3023 3025 3028 3032 3035 3035 3036 3041 3046 3047 3050 3056 3059 3061 3064 3067 3069 3072 3074 3076 3078
3138 3137 3135 3133 3132 3130 3129 3128 3127 3127 3125 3123 3121 3119 3117 3115 3113 3112 3111 3110 3108 3107 3106 3104 3102 3100 3098 3096 3095 3094 3092 3091 3089 3087 3086 3084 3083 3081 3079 3077 3075 3074 3072 3069 3067 3064 3062 3059 3056 3054 3051 3048 3045 3040 3037 3032 3027 3023 3020 3018 3018 3017 3015 3015 3016 3018 3022 3026 3029 3030 3031 3036 3041 3043 3047 3051 3053 3055 3058 3061 3064 3067 3069 3071 3073
3134 3133 3131 3130 3128 3126 3125 3124 3124 3123 3122 3120 3118 3116 3114 3112 3110 3109 3108 3107 3105 3104 3103 3101 3099 3098 3096 3094 3092 3091 3090 3088 3086 3084 3083 3081 3079 3077 3076 3074 3072 3071 3069 3067 3064 3062 3059 3057 3054 3051 3048 3045 3042 3038 3033 3028 3023 3018 3014 3011 3011 3011 3010 3009 3010 3013 3016 3020 3024 3025 3026 3030 3036 3040 3043 3045 3047 3049 3053 3056 3059 3062 3064 3066 3068
3131 3129 3128 3126 3124 3121 3119 3119 3119 3119 3118 3117 3115 3113 3110 3108 3107 3106 3105 3104 3102 3101 3100 3098 3096 3095 3093 3091 3089 3088 3087 3085 3082 3081 3079 3077 3076 3074 3072 3070 3069 3067 3066 3064 3062 3059 3057 3054 3052 3049 3046 3043 3038 3034 3028 3023 3019 3014 3009 3006 3005 3005 3004 3003 3005 3007 3010 3013 3018 3021 3021 3024 3031 3035 3037 3039 3041 3044 3047 3051 3054 3056 3058 3061 3063
3127 3126 3124 3121 3119 3117 3115 3115 3114 3113 3114 3113 3111 3109 3107 3106 3104 3103 3102 3101 3099 3098 3097 3095 3094 3092 3090 3088 3086 3085 3083 3081 3079 3078 3076 3074 3072 3071 3069 3067 3065 3064 3062 3060 3058 3055 3053 3051 3048 3046 3043 3039 3034 3029 3024 3018 3014 3010 3005 3002 2999 2998 2997 2997 3000 3002 3002 3006 3013 3016 3016 3020 3026 3030 3032 3034 3036 3039 3043 3046 3049 3051 3053 3056 3058